Location: Newark
(40.3500°N, 15.2333°E)
Time: 01:55:02
(UTC+00:00)

Vanguard 1 - Pass Details

Date: 26 January 2020
Orbit: 650 x 3833 km, 34.2° (Epoch: 20 February)

Event Time Altitude Azimuth Distance (km) Brightness Sun altitude
Rises 15:34:34 0° 240° (WSW) 3,154 15.8 5.1°
Reaches altitude 10° 15:37:14 10° 230° (SW) 2,098 14.0 4.6°
Maximum altitude 15:41:14 32° 166° (SSE) 1,120 10.6 4.0°
Drops below altitude 10° 15:45:25 10° 103° (ESE) 2,191 11.4 3.3°
Sets 15:48:15 0° 93° (E) 3,321 12.3 2.8°
